Location: Vancouver
(49.2500°N, 123.1330°W)
Time: 20:50:40
(UTC-07:00)

Iridium 21 - Visible Passes

Search period start: 16 October 2017 00:00
Search period end: 26 October 2017 00:00
Orbit: 776 x 779 km, 86.4° (Epoch: 16 October)

Date Brightness Start Highest point End Pass type
(mag) Time Alt. Az. Time Alt. Az. Time Alt. Az.
16 Oct 8.3 22:38:29 10° N 22:38:40 11° N 22:38:40 11° N visible
17 Oct 8.2 22:05:01 10° N 22:05:12 11° N 22:05:12 11° N visible
19 Oct 8.4 22:38:38 10° N 22:38:45 11° N 22:38:45 11° N visible
20 Oct 8.2 22:05:03 10° N 22:05:18 11° N 22:05:18 11° N visible
21 Oct 8.1 21:31:40 10° N 21:31:52 11° N 21:31:52 11° N visible
22 Oct 8.4 22:38:51 10° NNW 22:38:53 10° NNW 22:38:53 10° NNW visible
23 Oct 8.2 22:05:09 10° N 22:05:28 12° N 22:05:28 12° N visible
24 Oct 8.0 21:31:39 10° N 21:32:02 12° N 21:32:02 12° N visible
25 Oct 7.9 20:58:21 10° NNE 20:58:37 11° NNE 20:58:37 11° NNE visible
